Wind_Speed
69 70 71 72 72 72 73 73 73 73 73 74 74 75 76 76 77 78 79 80 81 81 81 81 81 80 80 79 79 78 78 78 78 79 78 79 79 80 81 82 83 83
73 73 74 75 75 76 76 75 75 75 76 77 77 77 78 79 79 80 81 82 82 83 83 83 83 82 82 81 82 82 83 83 84 83 83 82 82 82 82 83 84 84
79 80 81 81 81 81 80 80 79 80 81 81 81 81 82 82 82 83 84 84 84 85 85 85 85 85 85 85 85 85 86 87 87 87 86 86 85 85 84 85 85 86
87 87 88 89 89 89 88 87 86 86 87 87 87 88 88 87 87 88 89 90 90 90 89 89 89 89 89 89 89 90 90 90 90 90 89 89 88 88 87 88 88 89
94 94 94 95 96 96 96 95 95 95 95 95 95 96 95 95 94 94 95 96 96 96 95 95 94 94 95 94 95 95 96 96 96 95 94 93 92 92 91 92 92 93
102 102 101 101 101 101 102 103 104 105 105 104 104 103 102 102 102 102 102 102 102 102 101 101 100 100 100 100 100 101 101 102 102 101 100 99 98 97 97 97 98 99
110 110 109 108 107 107 107 108 110 111 112 112 111 109 108 108 108 108 108 108 107 107 107 106 106 105 105 104 104 105 106 107 107 106 106 105 105 104 103 104 104 105
120 119 116 114 113 112 112 113 114 115 116 116 115 113 112 112 112 113 113 113 113 113 112 112 111 111 110 110 109 109 109 110 110 111 111 112 112 111 111 111 111 111
127 126 121 117 115 116 116 117 118 119 120 119 118 117 116 116 116 117 117 117 117 117 117 117 117 116 116 115 114 114 114 113 114 114 115 116 117 118 118 117 117 117
125 122 119 116 115 116 117 119 120 121 122 121 121 121 120 120 120 121 121 121 121 122 122 122 122 121 120 120 120 119 118 118 118 118 118 119 121 123 123 123 122 123
116 114 113 112 113 114 116 118 120 121 122 123 123 123 123 123 123 123 123 123 123 124 125 126 125 124 124 124 124 124 124 123 123 122 122 123 124 126 127 127 127 127
105 107 108 108 109 110 111 114 116 118 119 119 120 121 121 121 120 120 120 120 122 124 125 127 128 127 127 126 126 127 127 127 127 127 127 127 127 128 130 130 130 130
97 99 101 102 103 104 105 106 109 112 113 113 113 113 114 114 114 115 115 116 118 120 122 125 127 128 127 127 127 128 128 128 129 129 130 130 130 130 131 132 132 131
92 94 95 96 98 100 101 102 103 104 106 107 108 108 107 107 107 108 110 112 113 115 118 121 123 125 125 125 125 126 127 127 128 129 129 129 129 129 130 131 131 130
92 93 94 95 96 98 98 99 99 99 100 100 100 101 102 102 103 104 106 107 109 110 112 115 118 120 121 122 122 122 123 124 125 126 126 126 125 125 126 126 125 125
94 94 94 95 97 98 99 98 98 98 98 97 97 97 99 100 101 102 103 104 105 106 108 109 112 114 116 117 118 118 118 119 119 120 120 120 120 119 119 118 118 119
101 99 98 98 98 100 101 101 101 101 100 100 99 99 100 102 102 103 103 103 104 105 105 107 109 110 112 113 114 114 113 113 114 114 114 114 113 113 113 113 113 113
105 105 104 103 102 103 104 104 104 104 105 105 105 104 104 105 105 106 107 106 104 104 104 106 109 111 112 112 112 112 112 111 111 111 111 110 110 110 110 110 110 111
107 107 107 106 106 106 107 107 107 107 108 108 109 109 108 108 108 109 110 109 107 104 104 106 108 109 110 110 111 112 112 111 110 110 110 109 109 109 109 109 109 109
109 109 109 109 108 107 107 108 108 109 109 110 110 111 111 111 111 111 111 111 109 107 106 107 108 108 107 107 108 109 110 110 109 108 108 107 107 107 107 107 107 108
109 110 110 111 111 109 108 108 108 109 110 111 111 111 111 112 113 113 113 113 113 111 110 109 108 107 107 107 107 108 109 110 110 109 108 107 107 106 105 105 105 105
108 109 110 111 112 112 110 108 108 108 109 110 110 111 111 112 113 114 114 115 115 115 114 113 111 110 109 109 109 109 110 111 111 110 109 109 108 107 105 104 104 105
107 107 108 110 111 112 112 110 109 108 108 109 109 110 111 112 112 113 114 115 115 115 115 114 114 113 112 112 112 112 112 111 111 111 111 110 109 107 106 106 108 109
109 108 108 109 110 111 112 112 111 109 108 109 109 109 110 111 111 112 113 113 114 114 114 114 113 113 113 113 113 114 113 112 112 112 111 110 108 107 107 109 111 113
109 109 109 110 110 111 112 112 112 111 111 110 110 110 110 110 110 110 111 111 112 113 113 113 113 112 112 112 113 113 113 112 112 112 111 109 107 107 109 111 113 114
109 109 110 110 111 112 112 112 112 112 112 112 111 110 110 110 109 109 108 109 110 110 111 111 111 112 112 112 112 112 111 111 111 111 109 107 107 108 110 111 112 112
Wind_Direction
274 274 274 273 273 271 270 269 269 269 269 270 270 270 271 271 271 272 272 272 273 273 273 273 273 273 273 272 271 270 269 269 270 271 271 271 271 271 271 272 272 273
273 273 273 272 272 271 270 269 269 269 268 268 268 269 269 270 270 271 272 272 273 273 273 273 273 273 272 272 271 271 270 270 270 270 270 270 270 270 270 271 271 272
271 271 271 271 271 271 270 270 270 270 269 269 269 270 270 270 271 272 272 272 272 272 272 272 272 272 272 272 271 271 271 270 270 270 270 270 270 270 270 270 271 271
271 271 271 271 271 271 270 270 270 269 269 269 269 269 270 270 271 271 272 272 272 272 272 272 272 272 272 272 271 271 271 270 270 270 271 271 271 271 271 271 271 271
271 272 272 271 270 270 270 269 269 269 268 268 268 268 268 269 269 269 270 271 271 271 271 272 272 272 272 271 271 271 271 271 270 270 270 271 271 271 271 271 271 271
272 273 272 271 269 268 268 268 269 269 269 269 269 268 268 269 269 269 269 269 269 270 271 271 271 271 271 271 271 271 271 271 271 271 271 271 271 271 271 271 271 272
273 272 272 270 269 267 266 266 267 268 268 268 268 268 268 269 269 269 269 269 268 269 269 269 270 270 270 271 271 271 271 272 272 272 272 272 272 272 272 272 272 272
275 274 272 270 269 267 265 264 264 265 265 265 266 266 266 267 267 268 268 268 268 269 269 269 268 268 268 269 269 270 270 271 272 272 272 272 272 272 272 272 271 271
274 273 272 270 268 267 266 264 263 263 263 264 265 265 265 265 266 266 266 266 267 267 268 268 268 268 268 268 268 268 269 270 270 271 272 272 272 272 272 272 271 271
272 271 269 268 267 266 265 265 264 264 264 264 264 265 265 265 266 266 266 265 265 265 266 266 266 266 267 267 268 268 268 268 269 270 270 271 271 272 272 272 272 272
269 268 267 266 265 264 264 264 265 265 265 265 265 265 265 265 265 266 265 265 264 264 264 265 265 265 265 266 267 267 267 268 268 269 269 270 270 271 271 272 272 272
265 266 266 265 264 264 264 264 264 264 265 265 265 266 266 265 265 265 265 264 264 263 263 264 264 264 264 265 265 266 266 267 267 268 269 269 270 270 271 271 272 272
260 261 262 262 262 262 262 261 262 262 263 263 264 264 264 264 264 264 264 263 263 263 263 264 264 264 264 264 265 265 266 266 267 268 268 269 269 270 271 271 272 273
261 260 260 260 260 260 260 260 260 260 261 261 262 262 263 263 263 263 263 263 263 263 263 264 264 264 265 265 266 266 267 267 268 268 269 269 270 270 271 272 273 274
264 263 263 263 262 262 261 261 261 261 261 261 261 261 261 262 263 264 264 264 264 264 264 264 265 265 265 266 266 267 268 268 268 269 269 270 271 271 272 273 273 274
267 265 265 265 265 265 265 264 263 263 263 263 262 262 262 262 263 263 264 265 265 265 265 265 265 266 267 267 267 268 269 269 269 270 270 271 271 272 272 273 273 273
269 268 268 268 267 267 267 266 266 266 265 265 265 265 264 264 264 264 264 264 264 265 265 266 267 267 267 267 268 269 270 271 271 271 270 270 270 271 271 272 272 272
268 268 268 268 267 267 267 266 266 266 266 266 266 266 266 266 266 267 266 265 265 265 265 267 267 267 267 268 268 269 270 271 271 271 270 270 269 270 270 271 271 272
266 266 266 265 265 264 265 265 265 265 265 266 266 266 267 267 267 267 267 267 266 266 266 266 266 267 267 268 268 268 269 269 269 269 269 269 269 269 270 270 271 271
264 264 264 263 262 261 261 262 263 263 264 264 265 265 266 267 267 267 268 268 268 267 267 266 267 267 268 269 269 270 270 269 269 269 269 269 269 270 270 270 270 271
263 263 263 262 262 261 260 259 259 260 261 262 262 263 264 265 266 267 268 269 269 269 268 268 268 268 269 270 271 271 272 272 272 272 272 272 272 272 272 272 272 273
262 262 263 263 263 262 261 260 259 258 259 260 260 261 262 262 263 264 265 266 267 268 269 269 269 270 270 271 271 271 271 272 273 274 275 275 275 276 276 276 277 277
262 262 262 262 263 263 263 262 261 260 259 259 259 259 260 260 261 262 262 263 265 266 267 268 268 269 270 270 271 271 271 272 273 273 274 275 276 277 278 279 280 280
263 262 262 262 262 263 263 264 263 263 262 261 260 260 259 260 260 260 261 262 263 264 265 266 266 267 268 268 269 270 271 272 272 273 274 275 276 278 279 280 280 280
261 261 262 262 262 263 263 263 264 264 263 263 262 261 261 261 260 261 261 262 263 263 264 265 266 267 267 268 268 269 270 271 272 273 274 275 276 278 279 279 279 279
258 259 259 260 260 261 262 262 262 263 263 263 263 263 263 262 262 262 262 262 263 263 264 264 265 266 266 267 268 269 270 271 272 272 274 275 276 276 276 277 277 278
Height
10607 10607 10606 10605 10604 10603 10602 10601 10600 10600 10599 10598 10597 10596 10595 10595 10594 10594 10593 10592 10592 10592 10591 10591 10591 10590 10590 10591 10591 10591 10591 10591 10591 10591 10591 10590 10588 10586 10585 10583 10582 10581
10598 10598 10597 10596 10595 10593 10593 10592 10592 10592 10589 10587 10587 10585 10584 10584 10583 10583 10582 10582 10581 10580 10580 10579 10579 10579 10579 10579 10579 10579 10579 10578 10578 10579 10579 10578 10577 10576 10575 10573 10572 10571
10588 10588 10587 10586 10585 10584 10584 10584 10583 10582 10579 10577 10576 10574 10573 10573 10573 10572 10571 10570 10570 10569 10568 10568 10568 10568 10568 10568 10567 10567 10566 10565 10565 10566 10566 10566 10565 10565 10564 10563 10562 10561
10576 10576 10576 10575 10574 10573 10573 10574 10573 10570 10567 10566 10564 10562 10562 10562 10562 10561 10559 10558 10558 10557 10557 10557 10557 10556 10556 10555 10555 10554 10553 10552 10552 10553 10554 10554 10553 10553 10553 10552 10551 10550
10562 10564 10564 10563 10562 10561 10561 10562 10559 10555 10553 10552 10550 10548 10549 10550 10549 10548 10547 10546 10545 10545 10545 10546 10545 10544 10543 10543 10542 10541 10540 10539 10539 10540 10541 10542 10542 10542 10542 10541 10540 10538
10546 10547 10547 10547 10547 10547 10547 10546 10543 10539 10538 10536 10534 10534 10535 10535 10535 10535 10534 10533 10532 10532 10532 10532 10532 10531 10530 10529 10529 10528 10526 10525 10525 10526 10528 10528 10528 10529 10529 10528 10527 10525
10529 10529 10529 10529 10529 10529 10529 10528 10525 10522 10519 10517 10517 10519 10521 10520 10520 10520 10519 10518 10518 10518 10518 10518 10518 10517 10517 10516 10515 10514 10513 10512 10512 10512 10513 10513 10513 10514 10514 10513 10513 10512
10510 10510 10511 10510 10509 10509 10509 10509 10506 10503 10500 10499 10502 10504 10505 10505 10505 10504 10503 10502 10502 10503 10503 10503 10502 10502 10502 10502 10501 10500 10499 10499 10498 10498 10498 10498 10497 10498 10498 10498 10498 10497
10489 10489 10491 10493 10491 10489 10488 10487 10486 10484 10482 10483 10486 10487 10488 10489 10489 10487 10487 10488 10488 10488 10487 10487 10486 10487 10487 10487 10487 10486 10486 10485 10484 10484 10484 10483 10481 10480 10480 10481 10481 10480
10468 10468 10470 10474 10473 10470 10468 10467 10466 10466 10467 10469 10470 10471 10472 10471 10470 10470 10470 10471 10472 10471 10470 10469 10470 10471 10471 10472 10472 10471 10471 10471 10470 10470 10469 10468 10465 10462 10461 10463 10464 10463
10449 10447 10449 10452 10452 10451 10450 10449 10448 10448 10450 10452 10453 10453 10454 10454 10453 10453 10453 10454 10454 10453 10451 10451 10452 10454 10455 10456 10456 10455 10455 10455 10455 10454 10454 10453 10450 10447 10444 10444 10446 10446
10434 10430 10430 10431 10432 10433 10433 10432 10432 10432 10432 10433 10434 10434 10435 10435 10436 10436 10436 10436 10435 10434 10433 10433 10434 10436 10438 10440 10440 10439 10438 10439 10439 10438 10437 10437 10436 10433 10429 10427 10428 10429
10418 10417 10415 10414 10414 10415 10415 10415 10415 10415 10415 10415 10415 10416 10417 10418 10418 10418 10418 10418 10417 10417 10417 10416 10416 10418 10420 10422 10422 10421 10421 10422 10422 10422 10421 10421 10421 10418 10415 10412 10411 10412
10399 10400 10400 10399 10398 10398 10398 10398 10398 10398 10398 10399 10400 10400 10401 10400 10400 10400 10400 10401 10401 10401 10400 10399 10398 10400 10402 10403 10404 10403 10403 10404 10405 10404 10404 10405 10405 10404 10401 10398 10397 10396
10380 10381 10382 10382 10381 10381 10381 10381 10382 10382 10382 10383 10385 10386 10385 10384 10384 10383 10383 10384 10385 10385 10384 10383 10382 10383 10384 10385 10386 10386 10386 10387 10387 10387 10388 10389 10389 10388 10386 10384 10383 10382
10360 10362 10364 10365 10364 10363 10362 10362 10364 10364 10365 10367 10369 10370 10370 10369 10368 10368 10368 10368 10368 10368 10368 10367 10367 10367 10367 10367 10367 10369 10369 10370 10370 10371 10372 10372 10373 10373 10372 10370 10368 10366
10340 10342 10344 10346 10346 10346 10345 10346 10346 10346 10348 10350 10352 10353 10353 10353 10352 10353 10353 10353 10352 10353 10354 10353 10352 10350 10350 10350 10351 10352 10352 10352 10353 10354 10354 10355 10357 10357 10356 10354 10353 10351
10323 10325 10327 10328 10329 10329 10329 10330 10330 10331 10332 10332 10333 10334 10335 10335 10336 10337 10336 10335 10336 10338 10340 10339 10337 10335 10334 10335 10336 10337 10336 10335 10335 10336 10337 10339 10340 10340 10340 10339 10338 10336
10304 10307 10309 10309 10311 10312 10312 10313 10314 10315 10315 10315 10316 10317 10317 10318 10320 10319 10317 10317 10319 10322 10324 10323 10321 10320 10321 10321 10321 10321 10320 10319 10319 10319 10321 10322 10323 10324 10324 10324 10323 10321
10284 10286 10288 10289 10291 10294 10295 10296 10297 10298 10298 10298 10299 10300 10300 10301 10301 10301 10300 10299 10301 10304 10306 10305 10305 10305 10306 10306 10305 10305 10303 10302 10302 10303 10305 10306 10307 10308 10308 10309 10308 10306
10265 10266 10267 10267 10269 10272 10276 10279 10280 10281 10281 10281 10282 10283 10284 10284 10283 10284 10284 10283 10283 10284 10286 10287 10289 10290 10290 10291 10290 10289 10288 10286 10286 10288 10289 10290 10290 10291 10291 10292 10292 10290
10248 10248 10248 10247 10247 10249 10254 10258 10262 10264 10264 10265 10266 10267 10268 10268 10268 10268 10268 10267 10266 10267 10268 10271 10273 10273 10275 10275 10274 10273 10272 10271 10272 10273 10274 10274 10273 10274 10274 10274 10274 10273
10230 10231 10232 10230 10229 10229 10231 10235 10240 10244 10246 10247 10249 10251 10251 10251 10251 10252 10252 10251 10251 10252 10254 10255 10257 10257 10258 10258 10258 10256 10255 10257 10258 10258 10258 10258 10258 10257 10258 10259 10257 10255
10213 10214 10215 10215 10214 10213 10213 10215 10218 10223 10226 10228 10230 10232 10234 10234 10235 10236 10236 10237 10237 10238 10238 10239 10241 10242 10242 10242 10242 10240 10240 10243 10244 10242 10242 10243 10242 10243 10243 10244 10242 10238
10196 10197 10198 10199 10199 10199 10198 10199 10201 10203 10205 10208 10210 10213 10215 10217 10219 10220 10222 10222 10222 10223 10223 10223 10225 10226 10226 10226 10226 10224 10225 10228 10228 10226 10226 10227 10228 10229 10229 10228 10227 10224
10180 10180 10182 10182 10183 10183 10183 10183 10184 10185 10187 10188 10190 10193 10195 10198 10201 10204 10206 10207 10207 10207 10208 10208 10209 10210 10209 10210 10209 10208 10210 10214 10214 10212 10212 10213 10214 10215 10215 10214 10212 10210